Location: Arbon
(43.0005°N, 0.7472°E)
Time: 01:12:32
(UTC+00:00)

Cosmos 2297 Rocket - Pass Details

Date: 07 August 2020
Orbit: 838 x 845 km, 71.0° (Epoch: 19 September)

Event Time Altitude Azimuth Distance (km) Brightness Sun altitude
Exits shadow 02:27:55 34° 267° (W) 1,355 2.9 -22.0°
Maximum altitude 02:29:25 40° 302° (WNW) 1,212 2.9 -21.8°
Drops below altitude 10° 02:34:44 10° 12° (NNE) 2,465 5.5 -21.2°
Sets 02:37:21 0° 20° (NNE) 3,405 6.6 -20.9°
